Volver al catálogo

STARLINK-31552

ActivoComunicacionesVLEO
NORAD 59356·PAYLOAD·🇺🇸 United States

Lanzado Mar 31, 2024 desde Cape Canaveral Space Force Station

Loading…

Próximos Pases (próximas 24 horas)

TLE

ActualizadoSource: CelesTrak SupGP

Época: Sep 15, 2026, 02:53 UTC

1 59356C 24060J   26258.12062500 -.00010381  00000+0 -37605-3 0  2585
2 59356  43.0010 270.4086 0001300 263.3520 320.3611 15.27579577    12

Sigue STARLINK-31552 en tiempo real con AllMySat

Download on the App Store